Torna al catalogo

STARLINK-34297

AttivoComunicazioniVLEO
NORAD 64261·PAYLOAD·🇺🇸 United States

Lanciato Jun 4, 2025 da Vandenberg Space Force Base

Loading…

Prossimi Passaggi (prossime 24 ore)

TLE

AggiornatoSource: CelesTrak SupGP

Epoca: Sep 14, 2026, 14:47 UTC

1 64261C 25120F   26257.61645833  .00031477  00000+0  93042-3 0  2576
2 64261  53.1589 313.5599 0001268  75.6874 170.2837 15.34360912    14

Traccia STARLINK-34297 in tempo reale con AllMySat

Download on the App Store